TimeMDT,TemperatureF,Dew PointF,Humidity,Sea Level PressureIn,VisibilityMPH,Wind Direction,Wind SpeedMPH,Gust SpeedMPH,PrecipitationIn,Events,Conditions,WindDirDegrees,DateUTC
12:13 AM,28.4,2.3,33,30.17,10.0,Calm,Calm,-,N/A,,Clear,0,2012-10-08 06:13:00
12:33 AM,28.2,1.8,32,30.18,10.0,Calm,Calm,-,N/A,,Clear,0,2012-10-08 06:33:00
12:53 AM,26.8,2.8,36,30.17,10.0,Calm,Calm,-,N/A,,Clear,0,2012-10-08 06:53:00
1:13 AM,28.4,1.6,32,30.17,10.0,Calm,Calm,-,N/A,,Clear,0,2012-10-08 07:13:00
1:33 AM,26.2,2.3,36,30.17,10.0,Calm,Calm,-,N/A,,Clear,0,2012-10-08 07:33:00
1:53 AM,25.5,2.5,37,30.18,10.0,Calm,Calm,-,N/A,,Clear,0,2012-10-08 07:53:00
2:12 AM,23.0,4.8,46,30.18,10.0,ESE,3.5,-,N/A,,Clear,120,2012-10-08 08:12:00
2:33 AM,24.3,4.5,43,30.18,10.0,Calm,Calm,-,N/A,,Clear,0,2012-10-08 08:33:00
2:53 AM,23.9,3.9,42,30.18,10.0,Calm,Calm,-,N/A,,Clear,0,2012-10-08 08:53:00
3:13 AM,23.0,4.3,45,30.17,10.0,Calm,Calm,-,N/A,,Clear,0,2012-10-08 09:13:00
3:33 AM,23.7,3.2,41,30.16,10.0,Calm,Calm,-,N/A,,Clear,0,2012-10-08 09:33:00
3:53 AM,24.3,3.2,40,30.16,10.0,Calm,Calm,-,N/A,,Clear,0,2012-10-08 09:53:00
4:13 AM,22.5,3.7,45,30.16,10.0,Calm,Calm,-,N/A,,Clear,0,2012-10-08 10:13:00
4:33 AM,22.5,4.6,46,30.16,10.0,Calm,Calm,-,N/A,,Clear,0,2012-10-08 10:33:00
4:53 AM,21.2,4.6,49,30.16,10.0,Calm,Calm,-,N/A,,Clear,0,2012-10-08 10:53:00
5:13 AM,20.1,6.6,56,30.16,10.0,Calm,Calm,-,N/A,,Clear,0,2012-10-08 11:13:00
5:33 AM,20.3,6.4,55,30.16,10.0,Calm,Calm,-,N/A,,Clear,0,2012-10-08 11:33:00
5:53 AM,20.5,5.4,52,30.16,10.0,Calm,Calm,-,N/A,,Clear,0,2012-10-08 11:53:00
6:13 AM,19.9,5.0,52,30.16,10.0,Calm,Calm,-,N/A,,Clear,0,2012-10-08 12:13:00
6:33 AM,20.8,4.6,50,30.16,10.0,Calm,Calm,-,N/A,,Clear,0,2012-10-08 12:33:00
6:53 AM,20.5,4.3,50,30.16,10.0,Calm,Calm,-,N/A,,Clear,0,2012-10-08 12:53:00
7:12 AM,18.5,4.8,55,30.16,10.0,Calm,Calm,-,N/A,,Clear,0,2012-10-08 13:12:00
7:33 AM,18.0,5.0,57,30.16,10.0,Calm,Calm,-,N/A,,Clear,0,2012-10-08 13:33:00
7:53 AM,19.6,5.9,55,30.16,10.0,Calm,Calm,-,N/A,,Clear,0,2012-10-08 13:53:00
8:13 AM,20.5,7.9,58,30.16,10.0,Calm,Calm,-,N/A,,Clear,0,2012-10-08 14:13:00
8:33 AM,23.5,7.7,51,30.16,10.0,Calm,Calm,-,N/A,,Clear,0,2012-10-08 14:33:00
8:41 AM,24.3,7.5,49,30.16,10.0,Calm,Calm,-,N/A,,Clear,0,2012-10-08 14:41:00
9:01 AM,28.2,7.2,41,30.16,10.0,Calm,Calm,-,N/A,,Clear,0,2012-10-08 15:01:00
9:22 AM,30.2,5.9,36,30.16,10.0,Calm,Calm,-,N/A,,Clear,0,2012-10-08 15:22:00
9:43 AM,34.0,4.5,29,30.15,10.0,Calm,Calm,-,N/A,,Clear,0,2012-10-08 15:43:00
10:02 AM,36.3,3.6,25,30.15,10.0,Calm,Calm,-,N/A,,Clear,0,2012-10-08 16:02:00
10:23 AM,39.4,2.7,22,30.14,10.0,Calm,Calm,-,N/A,,Clear,0,2012-10-08 16:23:00
10:42 AM,41.4,2.5,20,30.13,10.0,Calm,Calm,-,N/A,,Clear,0,2012-10-08 16:42:00
11:01 AM,45.1,2.7,17,30.12,10.0,Calm,Calm,-,N/A,,Clear,0,2012-10-08 17:01:00
11:22 AM,49.8,-2.0,12,30.11,10.0,Calm,Calm,-,N/A,,Clear,0,2012-10-08 17:22:00
11:41 AM,52.5,-5.1,9,30.10,10.0,East,3.5,-,N/A,,Clear,100,2012-10-08 17:41:00
12:00 PM,53.2,-5.1,9,30.10,10.0,SSE,4.6,-,N/A,,Clear,150,2012-10-08 18:00:00
12:21 PM,54.7,-5.8,8,30.09,10.0,Calm,Calm,-,N/A,,Clear,0,2012-10-08 18:21:00
12:41 PM,56.1,-8.0,7,30.08,10.0,Calm,Calm,-,N/A,,Clear,0,2012-10-08 18:41:00
1:01 PM,57.9,-9.4,6,30.07,10.0,SW,6.9,-,N/A,,Clear,220,2012-10-08 19:01:00
1:20 PM,58.6,-8.5,6,30.06,10.0,Calm,Calm,-,N/A,,Clear,0,2012-10-08 19:20:00
1:39 PM,60.1,-9.2,6,30.04,10.0,SW,6.9,-,N/A,,Clear,220,2012-10-08 19:39:00
2:00 PM,60.1,-10.3,5,30.04,10.0,WSW,9.2,20.7,N/A,,Clear,250,2012-10-08 20:00:00
2:33 PM,61.3,-12.3,5,30.02,10.0,SW,8.1,-,N/A,,Clear,230,2012-10-08 20:33:00
2:53 PM,61.5,-13.4,5,30.02,10.0,West,16.1,20.7,N/A,,Clear,260,2012-10-08 20:53:00
3:13 PM,61.7,-16.1,4,30.01,10.0,WSW,10.4,20.7,N/A,,Clear,250,2012-10-08 21:13:00
3:32 PM,62.6,-18.6,4,30.01,10.0,WSW,13.8,23.0,N/A,,Clear,240,2012-10-08 21:32:00
3:52 PM,63.0,-19.5,4,30.00,10.0,WSW,16.1,23.0,N/A,,Clear,250,2012-10-08 21:52:00
4:13 PM,63.1,-24.5,4,30.00,10.0,WSW,10.4,23.0,N/A,,Clear,250,2012-10-08 22:13:00
4:33 PM,63.1,-25.8,4,29.99,10.0,WSW,13.8,20.7,N/A,,Clear,250,2012-10-08 22:33:00
4:53 PM,62.8,-29.0,4,29.99,10.0,WSW,16.1,23.0,N/A,,Clear,250,2012-10-08 22:53:00
5:13 PM,61.7,-31.2,4,29.99,10.0,West,16.1,28.8,N/A,,Clear,260,2012-10-08 23:13:00
5:33 PM,61.3,-27.2,4,29.99,10.0,WSW,18.4,21.9,N/A,,Clear,240,2012-10-08 23:33:00
5:53 PM,60.3,-26.7,4,30.00,10.0,West,11.5,18.4,N/A,,Clear,270,2012-10-08 23:53:00
6:13 PM,58.8,-22.0,4,30.00,10.0,West,10.4,17.3,N/A,,Clear,260,2012-10-09 00:13:00
6:33 PM,55.9,-18.9,4,30.01,10.0,West,9.2,-,N/A,,Clear,260,2012-10-09 00:33:00
6:53 PM,53.6,-16.2,5,30.01,10.0,West,5.8,-,N/A,,Clear,260,2012-10-09 00:53:00
7:13 PM,52.9,-15.2,6,30.01,10.0,Calm,Calm,-,N/A,,Clear,0,2012-10-09 01:13:00
7:33 PM,52.2,-14.6,6,30.02,10.0,Calm,Calm,-,N/A,,Clear,0,2012-10-09 01:33:00
8:13 PM,51.3,-12.6,7,30.02,10.0,Calm,Calm,-,N/A,,Clear,0,2012-10-09 02:13:00
8:33 PM,48.9,-12.1,8,30.02,10.0,East,3.5,-,N/A,,Clear,90,2012-10-09 02:33:00
8:53 PM,47.5,-9.6,9,30.02,10.0,ESE,3.5,-,N/A,,Clear,120,2012-10-09 02:53:00
9:13 PM,42.4,-6.0,13,30.03,10.0,Calm,Calm,-,N/A,,Clear,0,2012-10-09 03:13:00
9:52 PM,42.6,-6.9,12,30.03,10.0,Calm,Calm,-,N/A,,Clear,0,2012-10-09 03:52:00
10:13 PM,42.8,-4.9,13,30.04,10.0,Calm,Calm,-,N/A,,Clear,0,2012-10-09 04:13:00
10:33 PM,41.0,-4.0,15,30.04,10.0,Calm,Calm,-,N/A,,Clear,0,2012-10-09 04:33:00
10:42 PM,40.5,-3.8,15,30.04,10.0,Calm,Calm,-,N/A,,Clear,0,2012-10-09 04:42:00
11:00 PM,39.0,-3.3,17,30.05,10.0,Calm,Calm,-,N/A,,Clear,0,2012-10-09 05:00:00
11:22 PM,38.5,-1.5,19,30.05,10.0,Calm,Calm,-,N/A,,Clear,0,2012-10-09 05:22:00
11:40 PM,38.7,-2.2,18,30.05,10.0,Calm,Calm,-,N/A,,Clear,0,2012-10-09 05:40:00